Find Starlink 11451

NORAD ID: 62561 Int'l Des: 2025-006 Owner: SPXS Country: US Constellation: starlink operational
LEOCIRCULAR

Live Position

Loading 3D Globe...

About Starlink 11451

Description loading...

Upcoming Passes

Passes for default location (London). Set your location on the main map for personalized predictions.

Altitude History

Loading altitude history...

Two-Line Element Set

1 62561U 25006H 26123.49124657 .00185296 00000-0 14095-2 0 9997
2 62561 42.9999 169.3570 0002982 257.1562 102.8972 15.70940655 75221
Epoch: May 3, 2026 • Age: 15 hours

Current Status

Altitude 366.1 km
Velocity 7.69 km/s
Sub-Earth Point -41.13°S, 153.31°E
Launch Date Jan 10, 2025
Age 1.3 years
Type internet

Technical Details

Classification Payload
Mass 960.00 kg
Dry Mass 910.00 kg
Total Mass 960.00 kg
Length 0.30 m
Diameter 4.10 m
Span 29.00 m
Shape Box + pan
Manufacturer SPXS
Bus Type Starlink V2MD
Phase Status In Orbit
Owner/State SPXS/US

Most Searched